Weather in Manchester

United States     42°59′44″N   71°27′15″W
temp.,
°C
wind,
m/s
gust,
m/s
humid.,
%
clouds,
%
prec.,
mm/h
press.,
hPa
HPBL,
m
24 may, tue
tue2423:00+12n2367100 0.0 102474
02:00+10nnw2367100 0.0 102675
05:00+8n2670100 0.0 1027165
08:00+11ne3555100 0.0 1028554
11:00+17ene23400 0.0 10281399
14:00+20e213618 0.0 10262065
17:00+17ese544720 0.0 1026851
20:00+11ese3875100 0.0 1027347
25 may, wed
wed2523:00+8s11958 0.0 102811
02:00+7sw009669 0.0 102810
05:00+7sw119661 0.0 102810
08:00+13ssw12659 0.0 1029358
11:00+20s1249100 0.0 10281101
14:00+24sse1340100 0.0 10262458
17:00+19sse376389 0.0 1026413
20:00+14sse247091 0.0 1026128
26 may, thu
thu2623:00+11ssw24885 0.0 102794
02:00+9s238340 0.0 102768
05:00+8s2381100 0.0 102758
08:00+13s3855100 0.0 1027417
11:00+20s584087 0.0 10251313
14:00+24ssw693533 0.0 10221847
17:00+23ssw584236 0.0 10211671
20:00+17ssw511615 0.0 1021759
27 may, fri
fri2723:00+15ssw4127642 0.0 1020653
02:00+14ssw4138768 0.0 1019683
05:00+16ssw41383100 0.0 1017800
08:00+18ssw41382100 0.0 1016853
11:00+21ssw51280100 0.0 10151035
14:00+24ssw61271100 0.0 10131244
17:00+23sw5137399 0.1 10121319
20:00+21ssw41188100 0.5 1012689
28 may, sat
sat2823:00+19ssw31197100 1.6 1012593
02:00+18ssw31298100 2.0 1011736
05:00+18ssw3999100 0.9 1010552
08:00+18ssw3998100 1.6 1010578
11:00+18s2799100 2.5 1011365
14:00+18s1599100 7.4 1010255
17:00+18w1398100 0.8 1012140
20:00+17n2597100 0.8 1014174